GW0701 Weather Reports


Display with metric or nautical units.
time (UTC)temp
F
wind
direction
speed
MPH
gust
MPH
rain 1hr
in
rain 24hr
in
rain mn
in
humidity
%
barometer
mb
20260507012519 49 237 0.0 0.0 0.00 0.00 0.00 61 1015.9
20260507012015 49 233 0.0 0.0 0.00 0.00 0.00 52 1016.1
20260507011513 50 233 0.0 0.0 0.00 0.00 0.00 51 1016.0
20260507011008 50 233 0.0 0.0 0.00 0.00 0.00 51 1015.9
20260507010503 51 237 0.0 0.0 0.00 0.00 0.00 50 1016.1
20260507010000 51 242 0.0 0.0 0.00 0.00 0.00 48 1015.9
20260507005457 52 280 0.0 1.0 0.00 0.00 0.00 47 1015.8
20260507004953 52 224 0.0 0.0 0.00 0.00 0.00 47 1015.8
20260507004450 53 253 0.0 0.0 0.00 0.00 0.00 46 1015.9
20260507003948 53 286 0.0 1.0 0.00 0.00 0.00 44 1015.7
20260507003443 53 271 1.0 2.0 0.00 0.00 0.00 45 1015.9
20260507002938 54 272 0.0 0.0 0.00 0.00 0.00 45 1015.7
20260507002435 54 26 0.0 1.0 0.00 0.00 0.00 44 1015.9
20260507001932 55 302 0.0 1.0 0.00 0.00 0.00 42 1015.9
20260507001428 55 34 1.0 2.0 0.00 0.00 0.00 41 1015.8
20260507000926 55 310 4.0 5.0 0.00 0.00 0.00 40 1015.9
20260507000421 56 227 1.0 1.0 0.00 0.00 0.00 40 1015.8
20260506235917 56 234 1.0 1.0 0.00 0.00 0.00 40 1015.9
20260506235415 56 295 1.0 1.0 0.00 0.00 0.00 43 1015.6
20260506234910 56 306 3.0 6.0 0.00 0.00 0.00 41 1016.0
20260506234408 56 278 0.0 1.0 0.00 0.00 0.00 41 1015.9
20260506233906 57 36 2.0 5.0 0.00 0.00 0.00 39 1016.1
20260506233401 57 330 5.0 6.0 0.00 0.00 0.00 39 1016.1
20260506232858 57 343 5.0 7.0 0.00 0.00 0.00 39 1016.0
20260506232354 58 288 2.0 2.0 0.00 0.00 0.00 38 1016.0
20260506231850 57 265 2.0 3.0 0.00 0.00 0.00 40 1016.0
20260506231348 57 236 3.0 3.0 0.00 0.00 0.00 40 1015.8
20260506230846 57 336 2.0 2.0 0.00 0.00 0.00 42 1015.7
20260506230342 57 13 3.0 5.0 0.00 0.00 0.00 39 1016.2
20260506225838 56 309 2.0 2.0 0.00 0.00 0.00 41 1016.0
20260506225336 57 208 4.0 6.0 0.00 0.00 0.00 40 1015.9
20260506224833 57 359 3.0 6.0 0.00 0.00 0.00 39 1016.0
20260506224330 56 261 4.0 7.0 0.00 0.00 0.00 39 1016.1
20260506223826 56 269 4.0 5.0 0.00 0.00 0.00 42 1016.1
20260506223321 56 342 2.0 2.0 0.00 0.00 0.00 40 1016.0
20260506222819 58 304 5.0 7.0 0.00 0.00 0.00 38 1016.2
20260506222314 57 328 3.0 3.0 0.00 0.00 0.00 40 1015.9
20260506221813 56 39 3.0 3.0 0.00 0.00 0.00 43 1016.2
20260506221310 57 283 3.0 5.0 0.00 0.00 0.00 39 1016.3
20260506220807 59 302 8.0 10.0 0.00 0.00 0.00 38 1016.1
20260506220302 58 282 4.0 5.0 0.00 0.00 0.00 40 1015.8
20260506215759 58 304 3.0 3.0 0.00 0.00 0.00 38 1015.8
20260506215255 58 260 3.0 5.0 0.00 0.00 0.00 39 1016.0
20260506214750 57 271 4.0 7.0 0.00 0.00 0.00 41 1015.8
20260506214248 57 280 3.0 3.0 0.00 0.00 0.00 40 1015.9
20260506213746 58 4 1.0 2.0 0.00 0.00 0.00 39 1016.0
20260506213243 58 311 2.0 3.0 0.00 0.00 0.00 39 1016.2
20260506212740 58 267 4.0 5.0 0.00 0.00 0.00 39 1015.9
20260506212236 58 281 2.0 2.0 0.00 0.00 0.00 39 1015.8
20260506211731 58 268 2.0 3.0 0.00 0.00 0.00 38 1016.2
20260506211228 57 309 5.0 7.0 0.00 0.00 0.00 40 1015.9
20260506210725 59 278 4.0 5.0 0.00 0.00 0.00 39 1016.1
20260506210222 57 232 4.0 6.0 0.00 0.00 0.00 40 1016.0
20260506205719 59 267 7.0 7.0 0.00 0.00 0.00 38 1016.3
20260506205214 59 260 5.0 7.0 0.00 0.00 0.00 39 1016.1
20260506204712 60 228 2.0 2.0 0.00 0.00 0.00 38 1016.3
20260506204209 60 311 3.0 3.0 0.00 0.00 0.00 42 1016.2
20260506203707 58 218 1.0 1.0 0.00 0.00 0.00 39 1016.5
20260506203203 59 267 1.0 2.0 0.00 0.00 0.00 41 1016.5
20260506202702 59 242 1.0 2.0 0.00 0.00 0.00 38 1016.3
20260506202157 58 273 0.0 0.0 0.00 0.00 0.00 42 1016.5
20260506201654 57 265 2.0 2.0 0.00 0.00 0.00 42 1016.5
20260506201150 57 267 9.0 11.0 0.00 0.00 0.00 38 1016.7
20260506200648 59 211 5.0 8.0 0.00 0.00 0.00 38 1016.6
20260506200144 57 278 3.0 5.0 0.00 0.00 0.00 38 1016.8
20260506195641 56 279 6.0 11.0 0.00 0.00 0.00 41 1016.7
20260506195137 56 300 2.0 3.0 0.00 0.00 0.00 40 1016.8
20260506194635 56 296 2.0 3.0 0.00 0.00 0.00 41 1016.8
20260506194131 58 280 3.0 5.0 0.00 0.00 0.00 40 1016.7
20260506193629 58 286 6.0 8.0 0.00 0.00 0.00 38 1016.7
20260506193126 57 270 3.0 5.0 0.00 0.00 0.00 42 1016.9
20260506192622 57 291 6.0 8.0 0.00 0.00 0.00 39 1016.8
20260506192118 58 226 0.0 1.0 0.00 0.00 0.00 40 1016.9
20260506191615 58 348 3.0 6.0 0.00 0.00 0.00 39 1017.0
20260506191111 57 334 3.0 3.0 0.00 0.00 0.00 44 1016.7
20260506190609 57 2 4.0 6.0 0.00 0.00 0.00 41 1016.9
20260506190105 56 50 1.0 2.0 0.00 0.00 0.00 42 1016.9
20260506185603 57 242 1.0 2.0 0.00 0.00 0.00 43 1016.7
20260506185059 56 283 4.0 6.0 0.00 0.00 0.00 42 1016.8
20260506184556 57 311 2.0 3.0 0.00 0.00 0.00 40 1016.7
20260506184054 57 338 4.0 6.0 0.00 0.00 0.00 40 1016.9
20260506183549 57 282 2.0 2.0 0.00 0.00 0.00 40 1016.7
20260506183046 56 258 2.0 2.0 0.00 0.00 0.00 40 1016.8
20260506182544 57 229 2.0 2.0 0.00 0.00 0.00 39 1016.9
20260506182041 58 251 3.0 3.0 0.00 0.00 0.00 39 1016.8
20260506181539 57 339 4.0 6.0 0.00 0.00 0.00 43 1016.9
20260506181035 56 216 2.0 2.0 0.00 0.00 0.00 40 1016.8
20260506180532 57 254 3.0 5.0 0.00 0.00 0.00 39 1017.0
20260506180028 57 264 8.0 11.0 0.00 0.00 0.00 40 1017.1
20260506175525 59 294 4.0 5.0 0.00 0.00 0.00 41 1017.1
20260506175021 57 292 6.0 8.0 0.00 0.00 0.00 39 1017.1
20260506174520 56 299 3.0 3.0 0.00 0.00 0.00 40 1017.0
20260506174016 56 252 7.0 9.0 0.00 0.00 0.00 39 1017.0
20260506173514 55 233 3.0 5.0 0.00 0.00 0.00 43 1016.9
20260506173010 56 302 6.0 7.0 0.00 0.00 0.00 41 1017.3
20260506172508 57 251 5.0 6.0 0.00 0.00 0.00 38 1017.0
20260506172004 57 318 5.0 6.0 0.00 0.00 0.00 38 1017.2
20260506171501 57 246 5.0 7.0 0.00 0.00 0.00 39 1016.9
20260506170959 57 310 1.0 2.0 0.00 0.00 0.00 42 1017.2
20260506170455 57 267 4.0 9.0 0.00 0.00 0.00 40 1017.3
20260506165948 56 265 2.0 2.0 0.00 0.00 0.00 41 1017.3
20260506165447 56 14 3.0 6.0 0.00 0.00 0.00 43 1017.1
20260506164942 56 263 1.0 1.0 0.00 0.00 0.00 39 1017.1
20260506164439 55 245 2.0 2.0 0.00 0.00 0.00 42 1017.2
20260506163937 55 25 5.0 7.0 0.00 0.00 0.00 42 1017.4
20260506163431 55 340 4.0 5.0 0.00 0.00 0.00 40 1017.3
20260506162926 54 313 3.0 5.0 0.00 0.00 0.00 44 1017.1
20260506162424 54 0 5.0 9.0 0.00 0.00 0.00 45 1017.2
20260506161921 53 245 1.0 2.0 0.00 0.00 0.00 46 1017.1
20260506161419 54 255 1.0 2.0 0.00 0.00 0.00 46 1017.0
20260506160911 55 268 1.0 2.0 0.00 0.00 0.00 46 1017.1
20260506160408 54 337 3.0 5.0 0.00 0.00 0.00 47 1017.0
20260506155906 53 343 3.0 3.0 0.00 0.00 0.00 48 1017.0
20260506155403 53 96 1.0 1.0 0.00 0.00 0.00 48 1017.0
20260506153525 53 32 5.0 8.0 0.00 0.00 0.00 46 1016.8
20260506153022 52 7 2.0 2.0 0.00 0.00 0.00 49 1016.8
20260506152519 53 201 2.0 3.0 0.00 0.00 0.00 50 1016.7
20260506152018 52 243 1.0 1.0 0.00 0.00 0.00 50 1017.0
20260506151515 51 341 4.0 5.0 0.00 0.00 0.00 52 1016.8
20260506151012 51 7 5.0 6.0 0.00 0.00 0.00 52 1016.8
20260506150508 50 17 8.0 9.0 0.00 0.00 0.00 52 1016.8
20260506150005 50 35 3.0 5.0 0.00 0.00 0.00 55 1016.8
20260506145502 50 46 2.0 2.0 0.00 0.00 0.00 54 1016.7
20260506144959 49 57 1.0 2.0 0.00 0.00 0.00 55 1016.7
20260506144456 49 44 7.0 9.0 0.00 0.00 0.00 55 1016.3
20260506143954 50 175 1.0 1.0 0.00 0.00 0.00 55 1016.3
20260506143451 49 20 4.0 5.0 0.00 0.00 0.00 55 1016.6
20260506142949 49 335 4.0 6.0 0.00 0.00 0.00 56 1016.6
20260506142446 49 36 4.0 7.0 0.00 0.00 0.00 58 1016.2
20260506141944 48 323 6.0 7.0 0.00 0.00 0.00 59 1016.2
20260506141442 49 345 3.0 5.0 0.00 0.00 0.00 58 1016.3
20260506140941 48 9 3.0 3.0 0.00 0.00 0.00 61 1016.3
20260506140437 48 43 2.0 3.0 0.00 0.00 0.00 59 1016.2
20260506135934 48 68 3.0 3.0 0.00 0.00 0.00 60 1015.9
20260506135431 47 14 4.0 6.0 0.00 0.00 0.00 62 1015.9
20260506134927 47 54 4.0 5.0 0.00 0.00 0.00 63 1015.8
20260506134423 47 0 5.0 8.0 0.00 0.00 0.00 63 1015.7
20260506133920 46 309 4.0 6.0 0.00 0.00 0.00 65 1015.8
20260506133417 46 31 1.0 2.0 0.00 0.00 0.00 67 1015.8
20260506132914 46 267 1.0 1.0 0.00 0.00 0.00 68 1015.7
20260506132411 46 287 1.0 2.0 0.00 0.00 0.00 69 1015.5
20260506131909 46 317 1.0 1.0 0.00 0.00 0.00 69 1015.6
20260506131405 45 22 1.0 2.0 0.00 0.00 0.00 69 1015.7
20260506130902 45 346 3.0 5.0 0.00 0.00 0.00 69 1015.4
20260506130358 45 289 0.0 1.0 0.00 0.00 0.00 70 1015.8
20260506125857 45 343 1.0 2.0 0.00 0.00 0.00 70 1015.7
20260506125355 45 350 0.0 1.0 0.00 0.00 0.00 71 1015.7
20260506124853 45 270 1.0 1.0 0.00 0.00 0.00 70 1015.5
20260506124349 45 246 2.0 3.0 0.00 0.00 0.00 70 1015.7
20260506123847 45 240 1.0 1.0 0.00 0.00 0.00 70 1015.7
20260506123345 44 336 4.0 5.0 0.00 0.00 0.00 70 1015.5
20260506122842 44 248 1.0 1.0 0.00 0.00 0.00 70 1015.6
20260506122339 44 324 2.0 2.0 0.00 0.00 0.00 70 1015.4
20260506121837 44 213 1.0 2.0 0.00 0.00 0.00 70 1015.4
20260506121334 44 255 2.0 2.0 0.00 0.00 0.00 72 1015.4
20260506120831 44 262 1.0 1.0 0.00 0.00 0.00 72 1015.3
20260506120329 44 256 1.0 1.0 0.00 0.00 0.00 73 1015.2
20260506115826 44 244 2.0 2.0 0.00 0.00 0.00 73 1015.1
20260506115324 44 269 1.0 1.0 0.00 0.00 0.00 73 1014.8
20260506114822 44 267 1.0 2.0 0.00 0.00 0.00 73 1015.0
20260506114319 44 244 0.0 0.0 0.00 0.00 0.00 73 1014.5
20260506113818 44 243 0.0 0.0 0.00 0.00 0.00 73 1014.4
20260506113315 43 237 1.0 1.0 0.00 0.00 0.00 73 1014.5
20260506112811 43 260 1.0 1.0 0.00 0.00 0.00 73 1014.1
20260506112309 43 315 1.0 2.0 0.00 0.00 0.00 73 1014.0
20260506111806 43 300 0.0 0.0 0.00 0.00 0.00 73 1013.9
20260506111304 44 301 2.0 2.0 0.00 0.00 0.00 73 1014.0
20260506110801 44 263 1.0 1.0 0.00 0.00 0.00 73 1014.2
20260506110258 44 239 1.0 1.0 0.00 0.00 0.00 73 1013.8
20260506105754 44 253 0.0 1.0 0.00 0.00 0.00 72 1013.6
20260506105252 44 267 1.0 1.0 0.00 0.00 0.00 73 1013.8
20260506104749 44 240 1.0 1.0 0.00 0.00 0.00 73 1013.9
20260506104247 44 284 1.0 1.0 0.00 0.00 0.00 73 1013.9
20260506103744 44 229 1.0 1.0 0.00 0.00 0.00 73 1014.0
20260506103241 44 289 1.0 2.0 0.00 0.00 0.00 72 1013.8
20260506102739 44 231 1.0 2.0 0.00 0.00 0.00 72 1013.7
20260506102237 44 281 1.0 1.0 0.00 0.00 0.00 73 1013.5
20260506101733 44 296 0.0 0.0 0.00 0.00 0.00 73 1013.2
20260506101230 44 248 1.0 1.0 0.00 0.00 0.00 72 1013.3
20260506100728 45 256 0.0 1.0 0.00 0.00 0.00 72 1013.2
20260506100226 45 311 1.0 2.0 0.00 0.00 0.00 71 1013.2
20260506095724 45 261 1.0 1.0 0.00 0.00 0.00 71 1013.2
20260506095220 45 297 1.0 1.0 0.00 0.00 0.00 70 1012.9
20260506094717 45 291 0.0 1.0 0.00 0.00 0.00 69 1012.9
20260506094215 45 292 1.0 1.0 0.00 0.00 0.00 70 1013.0
20260506093714 45 338 2.0 2.0 0.00 0.00 0.00 70 1013.2
20260506093210 45 353 2.0 3.0 0.00 0.00 0.00 71 1013.0
20260506092709 45 315 1.0 1.0 0.00 0.00 0.00 70 1013.2
20260506092206 45 312 1.0 1.0 0.00 0.00 0.00 71 1013.2
20260506091704 45 302 0.0 0.0 0.00 0.00 0.00 70 1013.0
20260506091201 45 280 0.0 0.0 0.00 0.00 0.00 70 1013.0
20260506090658 45 297 1.0 1.0 0.00 0.00 0.00 70 1013.1
20260506090155 46 265 0.0 1.0 0.00 0.00 0.00 70 1013.1
20260506085652 46 314 1.0 1.0 0.00 0.00 0.00 69 1013.1
20260506085148 46 295 1.0 1.0 0.00 0.00 0.00 69 1013.4
20260506084645 46 280 0.0 0.0 0.00 0.00 0.00 69 1013.0
20260506084141 46 295 1.0 1.0 0.00 0.00 0.00 68 1013.1
20260506083638 46 288 0.0 0.0 0.00 0.00 0.00 69 1012.9
20260506083136 46 295 0.0 1.0 0.00 0.00 0.00 68 1012.8
20260506082633 46 280 0.0 0.0 0.00 0.00 0.00 69 1012.8
20260506082128 46 273 1.0 1.0 0.00 0.00 0.00 68 1012.8
20260506081626 46 297 1.0 1.0 0.00 0.00 0.00 67 1012.5
20260506081124 47 299 0.0 0.0 0.00 0.00 0.00 67 1012.5
20260506080622 47 295 1.0 1.0 0.00 0.00 0.00 67 1012.4
20260506080118 47 317 1.0 1.0 0.00 0.00 0.00 67 1012.4
20260506073102 48 20 1.0 2.0 0.00 0.00 0.00 67 1012.6
20260506072558 48 312 0.0 0.0 0.00 0.00 0.00 67 1012.6
20260506072056 48 328 0.0 0.0 0.00 0.00 0.00 68 1012.7
20260506071554 48 336 3.0 5.0 0.00 0.00 0.00 66 1012.5
20260506071051 48 358 1.0 3.0 0.00 0.00 0.00 66 1012.3
20260506070548 48 335 4.0 5.0 0.00 0.00 0.00 66 1012.3
20260506062022 49 329 1.0 1.0 0.00 0.00 0.00 70 1012.4
20260506061518 49 54 1.0 1.0 0.00 0.00 0.00 71 1012.2
20260506061016 48 313 2.0 2.0 0.00 0.00 0.00 72 1012.2
20260506060514 49 285 1.0 2.0 0.00 0.00 0.00 72 1012.0
20260506050943 47 259 1.0 1.0 0.00 0.00 0.00 77 1011.3
20260506050441 48 259 1.0 1.0 0.00 0.00 0.00 77 1011.2
20260506044931 48 250 2.0 2.0 0.00 0.00 0.00 76 1011.2
20260506044430 48 253 1.0 2.0 0.00 0.00 0.00 77 1011.1
20260506043926 48 262 1.0 2.0 0.00 0.00 0.00 77 1011.2
20260506043423 48 246 1.0 2.0 0.00 0.00 0.00 77 1011.1
20260506042921 48 252 2.0 2.0 0.00 0.00 0.00 77 1011.2
20260506042420 48 252 1.0 2.0 0.00 0.00 0.00 78 1011.3
20260506041918 48 246 2.0 2.0 0.00 0.00 0.00 78 1011.0
20260506041415 48 248 1.0 1.0 0.00 0.00 0.00 78 1010.9
20260506040912 48 247 1.0 1.0 0.00 0.00 0.00 77 1011.0
20260506040410 48 248 2.0 2.0 0.00 0.00 0.00 77 1011.0
20260506035905 49 244 0.0 1.0 0.00 0.00 0.00 77 1011.2
20260506035403 49 243 0.0 0.0 0.00 0.00 0.00 76 1011.1
20260506034900 49 247 0.0 0.0 0.00 0.00 0.00 76 1011.0
20260506034358 49 248 0.0 0.0 0.00 0.00 0.00 75 1011.1
20260506033854 50 248 0.0 1.0 0.00 0.00 0.00 74 1010.9
20260506033351 50 248 0.0 1.0 0.00 0.00 0.00 74 1011.0
20260506032848 50 248 0.0 0.0 0.00 0.00 0.00 73 1011.3
20260506032345 50 248 0.0 0.0 0.00 0.00 0.00 73 1011.2
20260506031842 50 248 1.0 1.0 0.00 0.00 0.00 73 1011.3
20260506031339 50 249 1.0 1.0 0.00 0.00 0.00 73 1011.5
20260506030837 50 250 2.0 2.0 0.00 0.00 0.00 73 1011.5
20260506030335 50 252 1.0 1.0 0.00 0.00 0.00 73 1011.1
20260506025831 50 251 1.0 1.0 0.00 0.00 0.00 73 1011.5
20260506025327 50 236 0.0 1.0 0.00 0.00 0.00 73 1011.3
20260506024825 50 232 0.0 1.0 0.00 0.00 0.00 73 1011.3
20260506024321 51 231 1.0 1.0 0.00 0.00 0.00 73 1011.7
20260506023818 51 246 0.0 0.0 0.00 0.00 0.00 73 1011.3
20260506023314 51 247 0.0 0.0 0.00 0.00 0.00 72 1011.3
20260506022811 51 247 0.0 0.0 0.00 0.00 0.00 70 1011.2
20260506022309 51 248 0.0 0.0 0.00 0.00 0.00 68 1011.2
20260506021807 51 248 1.0 1.0 0.00 0.00 0.00 68 1011.0
20260506021303 51 247 0.0 0.0 0.00 0.00 0.00 69 1010.9
20260506020800 51 247 1.0 1.0 0.00 0.00 0.00 70 1010.7
20260506020258 51 246 0.0 0.0 0.00 0.00 0.00 70 1010.8
20260506015756 51 246 0.0 0.0 0.00 0.00 0.00 71 1010.5
20260506015253 51 246 0.0 0.0 0.00 0.00 0.00 71 1010.7
20260506014749 51 246 0.0 0.0 0.00 0.00 0.00 71 1010.4
20260506014246 51 246 0.0 1.0 0.00 0.00 0.00 70 1010.5
20260506013743 51 246 1.0 1.0 0.00 0.00 0.00 69 1010.6
20260506013240 51 246 0.0 0.0 0.00 0.00 0.00 68 1010.6